Powrót do katalogu

SL-12 R/B(2)

AktywnyGEO
NORAD 21019·ROCKET BODY·🇷🇺 Russia

Wystrzelony Dec 20, 1990 z Baikonur Cosmodrome

Loading…

TLE

ŚwieżeSource: Space-Track

Epoka: Sep 13, 2026, 16:02 UTC

1 21019U 90112D   26256.66866757 -.00000294  00000-0  00000-0 0  9994
2 21019  12.8196 337.4553 0026011 188.5152 169.1070  1.00015997120810

Śledź SL-12 R/B(2) w czasie rzeczywistym z AllMySat

Download on the App Store